Location: Newark
(37.9800°N, 91.3000°W)
Time: 22:02:21
(UTC+00:00)

N. Korean satellite - Pass Details

Date: 23 October 2019
Orbit: 456 x 506 km, 97.2° (Epoch: 16 November)

Event Time Altitude Azimuth Distance (km) Brightness Sun altitude
Rises 23:56:26 0° 196° (SSW) 2,459 10.5 -8.2°
Reaches altitude 10° 23:58:48 10° 213° (SSW) 1,593 9.8 -8.7°
Maximum altitude 00:01:28 21° 265° (W) 1,076 9.5 -9.2°
Drops below altitude 10° 00:04:10 10° 316° (NW) 1,613 9.7 -9.7°
Sets 00:06:35 0° 333° (NNW) 2,500 10.5 -10.2°
